RH
49 59 62 69 82 89 84 74 72 71 67 55 44 25 19 16 14 21 28 12 9 13 15 28 26 21 26 31 65 72 82 80 74 46 67 56 62 54 53 58 54 54 69 74 86
34 34 35 38 45 49 52 57 58 46 41 35 26 25 19 18 31 49 11 11 10 11 12 26 24 26 39 38 69 76 80 74 71 69 72 64 57 59 60 60 65 73 76 84 92
34 34 32 30 31 32 33 34 26 21 22 24 23 21 19 23 58 18 22 12 14 14 14 19 21 25 35 46 59 81 76 78 64 63 68 70 57 52 60 62 61 77 84 84 88
33 32 31 29 28 28 28 28 26 24 21 18 17 16 21 45 23 22 19 19 13 19 13 11 19 27 30 35 62 70 72 70 90 84 58 67 66 58 52 51 51 64 75 79 82
32 31 29 28 27 27 26 27 27 27 30 22 17 19 33 25 20 20 18 13 17 18 12 12 24 26 30 30 69 75 71 70 87 78 63 67 65 62 54 49 53 64 70 76 76
30 28 27 25 24 26 26 25 26 26 27 32 17 23 51 11 12 25 19 17 19 16 13 13 21 24 29 27 58 66 72 78 75 73 71 75 64 60 55 48 58 67 72 71 72
27 26 25 22 22 23 23 23 22 24 25 32 20 44 46 11 30 26 22 19 20 18 14 14 18 24 25 26 28 71 82 80 87 79 80 79 70 71 59 54 60 65 68 68 69
26 24 24 21 20 20 19 19 19 21 28 31 26 60 44 8 13 20 23 30 31 20 13 9 15 20 22 21 32 73 73 84 89 90 85 77 84 71 70 56 63 63 63 65 66
26 24 22 21 18 17 16 17 23 30 34 33 61 54 25 21 23 17 20 23 22 18 12 11 15 19 20 26 34 72 86 87 88 88 88 87 87 83 67 54 62 62 60 62 64
39 32 25 21 17 14 15 24 51 52 55 65 63 43 21 19 18 13 21 18 13 12 12 11 26 27 32 31 39 68 93 86 88 92 85 91 88 89 74 70 56 54 58 61 60
59 48 33 22 18 13 17 30 34 36 66 33 28 27 24 19 16 11 16 19 15 16 22 20 24 29 27 25 36 70 79 90 85 86 85 91 93 95 83 79 65 53 53 58 61
63 56 43 24 14 15 25 28 23 28 39 35 40 36 30 24 24 17 11 18 20 26 21 26 28 22 22 24 31 78 88 93 86 85 80 93 92 92 86 88 78 61 54 57 64
64 59 47 26 14 30 25 27 27 29 39 30 31 31 24 26 23 20 16 16 18 23 22 27 20 20 20 45 61 80 78 92 80 88 86 89 91 93 90 90 82 76 58 56 63
64 59 46 32 22 20 25 23 24 31 41 25 25 20 17 14 13 13 14 13 15 18 21 19 15 16 19 20 56 73 69 72 90 88 91 87 92 97 87 92 91 79 67 55 56
63 57 43 34 25 29 20 17 27 26 37 21 17 12 12 14 14 12 12 14 17 17 18 19 18 18 17 18 50 52 69 81 79 87 90 95 94 86 93 93 85 81 76 52 53
59 50 35 30 27 12 15 20 26 41 40 30 14 16 17 16 14 14 14 14 16 17 19 20 17 17 20 44 46 66 76 82 82 90 94 88 88 93 95 84 77 71 75 66 50
52 37 30 33 19 22 14 30 44 47 28 21 12 16 18 19 17 17 18 20 24 24 24 22 21 53 59 73 63 74 77 92 85 94 88 87 89 79 77 86 78 79 75 69 54
46 23 30 21 15 16 25 40 44 33 38 21 13 20 20 25 23 20 23 26 20 23 29 29 27 66 58 68 78 77 60 82 65 87 83 86 91 76 57 60 63 57 65 68 64
29 30 42 15 14 20 38 52 46 39 30 12 12 20 26 25 26 31 34 32 25 22 26 28 25 20 54 56 56 72 72 60 82 82 83 87 77 63 64 74 78 74 74 74 72
34 52 44 26 23 30 41 48 40 36 24 11 14 16 25 30 31 35 37 31 31 27 23 25 33 21 20 49 51 58 57 65 83 81 79 81 82 80 76 73 81 79 74 73 74
58 48 31 29 30 41 40 43 33 28 25 12 13 14 20 30 37 42 39 33 32 31 27 28 27 25 23 34 61 39 55 50 65 77 82 76 67 64 62 62 79 66 63 58 65
58 39 38 34 40 62 46 39 27 24 14 10 12 12 24 37 42 42 36 36 31 31 28 29 36 38 30 25 27 32 45 45 57 42 78 72 65 71 56 53 56 57 57 60 57
69 76 42 36 44 49 40 27 23 21 21 12 13 14 32 41 33 45 38 32 35 34 29 29 37 44 33 33 37 36 45 30 37 49 69 56 47 64 63 66 69 73 71 68 64
80 40 55 46 49 38 31 31 26 21 21 14 15 28 34 42 51 33 41 36 40 36 51 31 42 37 45 44 43 54 61 63 27 33 36 46 32 77 70 70 82 85 82 78 81
78 48 61 60 54 51 37 40 38 36 15 16 26 22 35 44 44 41 46 43 33 40 35 38 37 44 36 48 56 65 66 71 56 74 27 54 78 95 95 94 81 84 86 86 85
50 83 87 83 70 55 56 45 35 31 20 16 27 28 37 42 38 34 39 43 37 38 39 55 42 51 55 47 48 55 60 66 75 87 83 89 87 87 90 93 97 92 84 86 86
71 73 87 73 70 60 55 36 46 40 16 17 27 35 35 30 32 27 39 45 39 40 45 57 63 53 56 60 47 61 55 65 67 73 83 93 83 76 96 95 97 97 89 92 96
Wind_Speed
14 13 12 11 11 11 12 11 11 11 11 11 11 10 11 14 15 8 6 4 4 7 6 5 5 6 3 1 3 1 3 2 2 5 3 9 5 6 6 10 2 2 5 12 22
16 16 15 14 13 12 11 11 10 10 10 10 10 10 11 14 13 9 8 7 5 12 4 4 4 5 2 1 3 2 2 2 4 3 3 2 11 8 6 6 4 10 15 24 22
16 17 17 16 14 13 12 10 10 10 10 10 9 9 11 11 3 4 4 11 10 9 6 4 5 3 1 2 2 2 2 6 3 4 4 4 6 2 14 3 8 17 15 18 18
16 17 17 17 17 15 14 13 11 11 10 9 9 9 8 4 4 2 9 11 13 9 6 6 4 3 2 1 1 2 4 7 6 10 3 1 5 5 6 5 14 17 20 18 14
16 17 17 17 17 16 14 12 11 10 9 9 8 7 3 3 6 7 5 17 14 10 4 3 4 3 1 2 3 3 3 7 9 13 4 1 3 2 8 14 15 16 18 16 14
16 17 18 18 17 17 15 13 11 11 9 8 7 5 2 2 5 3 4 14 9 8 3 2 5 4 0 2 2 2 5 8 5 6 2 2 2 3 6 15 17 18 16 15 15
17 18 19 19 19 18 16 14 12 10 9 7 4 3 2 7 4 5 6 5 5 5 4 6 1 4 1 4 3 10 4 9 8 3 3 7 5 3 2 15 19 16 14 13 15
17 18 19 20 20 18 18 16 14 12 6 3 2 1 5 2 7 7 8 3 2 7 7 2 4 2 2 4 3 3 4 3 6 5 1 4 5 4 11 17 18 15 14 14 12
18 19 20 21 22 21 21 17 11 1 1 0 2 2 5 3 7 7 13 4 6 6 4 2 4 2 2 3 4 6 3 5 4 5 2 6 4 8 5 18 17 16 14 14 12
19 20 21 21 22 22 20 10 6 6 4 2 1 2 2 2 4 2 9 9 3 4 2 3 4 2 4 4 3 2 4 3 4 3 7 7 8 6 5 5 16 16 13 14 14
21 22 23 23 24 20 13 1 4 3 1 5 4 4 5 8 2 1 5 8 3 3 3 2 4 4 2 5 4 4 3 5 3 5 4 2 1 5 7 4 6 9 12 14 16
21 23 24 23 25 12 6 4 2 2 7 5 4 6 9 4 2 1 12 4 3 3 4 5 1 4 4 3 2 5 7 2 1 4 2 4 3 2 6 3 4 4 13 15 11
21 23 25 25 17 4 8 3 2 7 2 6 5 4 3 8 5 4 6 3 2 2 3 5 3 4 3 2 4 4 5 5 3 5 3 3 4 5 4 5 6 7 8 13 17
21 22 24 25 3 12 4 2 17 5 5 6 3 4 4 3 2 5 7 4 3 4 5 2 3 3 3 4 5 3 7 9 10 5 2 3 2 4 9 6 7 12 9 15 16
21 22 22 21 15 3 1 14 3 2 4 2 2 1 1 4 1 1 2 5 5 3 6 6 2 3 4 7 8 5 11 6 2 3 2 4 2 3 11 13 15 16 8 16 16
22 22 22 11 10 8 9 10 3 5 1 5 1 1 2 1 2 1 3 5 2 3 1 6 3 5 6 2 9 11 7 7 5 3 2 7 5 5 11 22 14 13 11 12 17
23 25 21 13 4 3 12 3 5 3 3 5 2 1 1 3 2 2 4 2 3 3 3 4 3 1 4 8 6 5 7 3 2 0 5 4 4 8 17 14 19 18 13 12 15
27 21 12 13 2 8 2 5 2 2 4 4 3 2 3 5 4 3 3 2 1 4 1 1 5 8 4 5 7 4 6 6 6 4 2 1 5 6 9 17 16 19 15 12 12
24 10 7 3 13 6 5 3 6 4 3 3 3 6 5 4 2 4 4 2 2 4 6 1 5 1 5 5 9 6 5 5 5 2 1 4 6 5 2 8 11 15 15 11 12
16 7 5 2 13 7 4 5 4 4 2 2 3 2 2 5 4 4 0 1 2 2 2 2 3 3 2 4 2 5 7 2 2 4 4 4 5 5 11 9 15 11 14 11 11
5 3 6 14 6 5 3 6 5 6 4 4 3 3 0 3 2 1 1 2 1 3 1 3 2 6 1 2 7 2 2 1 4 4 5 2 6 5 11 15 19 24 24 23 19
5 2 5 10 3 1 3 5 4 3 2 2 4 2 3 2 2 3 3 4 1 1 1 0 4 3 6 7 2 4 6 6 4 4 2 3 6 7 6 7 19 12 15 18 19
2 2 4 3 3 2 4 3 3 2 3 4 4 3 2 4 1 1 2 2 3 3 3 3 1 3 5 4 4 4 3 2 3 3 5 5 6 6 5 4 7 9 8 11 14
2 1 3 2 1 5 3 4 3 2 4 3 5 4 4 2 1 2 2 3 5 2 7 4 2 5 4 6 1 5 5 3 4 3 4 5 6 8 5 2 4 7 7 7 8
1 2 2 2 2 3 3 2 3 3 1 2 1 4 7 4 1 3 2 4 2 6 2 4 5 4 5 3 6 8 4 7 1 3 4 5 4 5 7 5 4 4 7 10 11
1 2 4 3 2 3 5 5 4 3 6 4 5 4 5 6 8 8 5 3 2 3 3 3 1 2 1 3 4 1 8 3 4 4 1 4 2 3 5 5 8 6 5 6 7
1 2 2 3 2 2 4 3 3 4 5 7 9 6 5 6 6 3 3 3 2 1 1 2 3 2 5 6 4 4 0 3 1 4 3 2 3 5 6 9 6 5 6 7 6
Wind_Direction
15 7 357 349 343 339 338 334 331 331 329 327 327 327 330 327 322 298 249 225 194 157 151 118 131 138 116 86 113 86 62 94 122 132 102 136 128 185 100 133 112 110 126 136 148
18 14 9 3 357 351 345 338 336 338 336 334 333 335 335 328 322 271 265 194 166 169 139 146 127 137 58 50 162 100 118 134 42 44 64 317 149 161 124 143 70 85 90 126 142
16 13 9 6 2 358 353 348 349 352 353 349 345 341 331 331 302 251 339 193 178 179 117 136 97 111 86 88 191 74 143 135 80 353 32 357 155 104 140 144 169 148 136 140 145
11 10 7 7 7 2 359 358 359 0 358 349 341 339 337 346 141 3 343 172 171 154 148 124 71 79 80 197 174 85 97 116 53 303 261 300 320 114 178 149 156 149 143 148 160
5 4 3 4 4 1 355 353 353 349 348 350 341 347 9 344 256 335 4 155 164 167 164 119 116 133 130 293 137 177 152 157 154 220 225 315 258 66 215 137 138 140 147 155 162
359 359 357 358 359 356 352 345 341 336 330 339 344 356 19 335 318 329 133 155 167 164 130 142 167 189 27 297 211 104 113 117 166 124 38 315 263 178 174 144 143 152 157 163 171
356 355 352 353 352 348 344 331 323 321 314 330 343 25 53 229 92 129 145 178 197 177 133 225 158 72 144 315 336 144 118 90 42 55 112 334 313 185 128 156 154 165 160 170 181
354 352 349 347 344 337 337 327 316 304 289 319 9 25 248 230 246 258 216 216 212 210 202 322 172 94 175 301 39 185 112 106 21 61 43 45 268 190 246 165 165 172 167 174 184
352 350 347 344 339 334 337 330 329 322 196 31 18 62 288 220 272 274 218 139 144 154 199 96 135 123 358 89 31 4 101 86 125 36 91 178 289 3 217 171 169 177 178 175 179
350 348 346 344 337 336 337 345 56 81 107 59 308 350 296 260 296 249 187 154 128 116 74 94 54 64 46 70 209 141 131 67 127 138 92 66 313 335 351 227 177 179 179 178 185
345 345 344 343 336 337 341 357 10 7 134 217 231 258 283 309 334 158 146 147 113 62 112 49 96 208 135 199 160 124 108 120 155 180 134 112 162 315 341 339 192 175 181 186 191
341 341 341 342 336 346 26 63 123 135 311 247 252 267 264 274 307 317 147 122 145 171 109 35 253 210 176 178 153 116 123 131 33 111 88 171 276 249 314 290 315 255 186 189 175
339 338 338 342 338 37 342 138 164 327 161 301 215 215 212 153 206 245 134 137 127 107 147 139 222 102 157 178 128 155 177 190 152 141 48 117 310 224 219 270 290 273 221 185 172
337 335 337 342 0 335 324 12 319 175 57 291 284 291 121 172 301 215 174 129 30 170 140 198 272 202 162 219 155 202 192 144 140 137 193 224 221 212 226 255 267 255 214 188 181
334 330 331 331 305 285 19 334 29 129 56 280 246 145 149 124 228 91 206 67 150 155 97 249 243 215 195 217 164 237 110 116 88 61 93 191 130 240 156 240 226 235 221 193 184
329 324 320 320 298 262 323 339 124 40 1 338 256 62 72 48 266 87 99 59 140 153 48 239 221 186 208 14 177 130 83 54 52 53 287 179 190 200 188 224 232 210 203 196 186
323 320 304 279 240 186 343 50 45 120 317 310 317 352 156 335 5 92 116 75 109 51 339 314 246 59 125 77 20 88 78 22 349 291 234 152 164 245 198 190 214 203 189 189 186
325 317 290 262 209 242 328 54 139 240 272 313 22 29 65 357 43 36 80 65 101 116 140 221 317 168 177 169 172 158 142 160 208 194 247 273 231 245 213 199 199 191 184 173 181
329 314 280 278 212 198 78 87 203 204 257 334 12 56 340 10 92 70 27 151 204 174 171 176 277 220 199 151 149 209 205 155 104 354 101 226 280 289 144 142 160 164 160 176 171
328 327 282 271 155 147 83 223 221 214 324 81 123 180 60 321 47 59 311 289 281 248 200 188 300 251 246 105 337 156 167 114 23 163 241 271 270 232 212 186 173 157 169 183 165
330 34 352 149 130 56 165 228 248 244 207 155 201 155 150 151 99 30 215 281 244 312 245 145 125 295 358 181 186 124 165 70 130 164 166 288 268 219 206 180 183 179 182 190 192
347 68 360 156 65 7 174 202 241 248 215 157 130 132 150 140 129 176 207 227 203 223 294 28 146 269 245 292 230 197 193 153 137 242 243 155 275 313 193 191 187 204 200 208 202
8 269 40 7 159 239 272 277 263 258 252 167 167 176 57 132 146 235 265 278 28 322 232 213 358 7 355 343 43 34 6 90 103 85 200 148 266 360 31 155 167 159 165 181 189
5 38 332 58 145 152 190 269 250 245 256 175 143 110 112 101 310 201 269 305 339 267 351 119 130 148 206 237 345 325 343 348 149 135 180 219 310 346 349 286 153 146 141 141 136
58 264 215 218 266 201 186 264 238 258 241 106 48 191 149 156 191 229 220 304 327 334 81 105 190 170 175 271 86 254 353 357 72 99 179 284 314 324 316 324 323 143 131 138 154
47 357 352 280 305 208 177 221 218 280 194 189 167 180 149 153 184 206 171 204 220 315 76 344 170 283 66 97 268 337 30 344 15 19 5 315 7 323 0 58 56 71 113 146 164
11 289 126 267 288 158 215 192 241 349 249 185 164 130 155 217 172 165 156 104 147 234 8 86 90 28 169 298 37 336 290 56 226 359 310 335 239 289 49 64 53 75 108 113 81